Tiempo cada hora Abriaquí

Hoy, 26 Octubre, Lunes

Tiempo Temperatura Precipitaciones Viento Presión Humedad
00:00 +13°C° 0 mm 0 mps 599 mmHg 95%
01:00 +12°C° 0 mm 0 mps 599 mmHg 95%
02:00 +12°C° 0 mm 0 mps 598 mmHg 95%
03:00 +12°C° 0 mm 0 mps 598 mmHg 95%
04:00 +12°C° 0 mm 0 mps 598 mmHg 95%
05:00 +13°C° 0 mm 0 mps 599 mmHg 94%
06:00 +13°C° 0 mm 0 mps 599 mmHg 93%
07:00 +14°C° 0 mm 0 mps 600 mmHg 93%
08:00 +18°C° 0.1 mm 1 mps 601 mmHg 85%
09:00 +20°C° 0.1 mm 1 mps 602 mmHg 78%
10:00 +22°C° 0.1 mm 1 mps 603 mmHg 71%
11:00 +22°C° 1.2 mm 1 mps 602 mmHg 75%
12:00 +22°C° 1.2 mm 1 mps 601 mmHg 79%
13:00 +22°C° 1.2 mm 1 mps 600 mmHg 82%
14:00 +21°C° 1.5 mm 1 mps 600 mmHg 86%
15:00 +20°C° 1.5 mm 1 mps 599 mmHg 90%
16:00 +19°C° 1.5 mm 1 mps 598 mmHg 94%
17:00 +18°C° 0.6 mm 1 mps 599 mmHg 95%
18:00 +16°C° 0.6 mm 0 mps 599 mmHg 96%
19:00 +15°C° 0.6 mm 0 mps 599 mmHg 98%
20:00 +15°C° 0.3 mm 0 mps 599 mmHg 97%
21:00 +14°C° 0.3 mm 0 mps 599 mmHg 97%
22:00 +14°C° 0.3 mm 0 mps 599 mmHg 97%
23:00 +14°C° 0.3 mm 0 mps 599 mmHg 97%

Mañana, 27 Octubre, Martes

Tiempo Temperatura Precipitaciones Viento Presión Humedad
00:00 +14°C° 0.3 mm 0 mps 599 mmHg 97%
01:00 +14°C° 0.3 mm 0 mps 599 mmHg 97%
02:00 +13°C° 0.2 mm 0 mps 599 mmHg 97%
03:00 +13°C° 0.2 mm 0 mps 599 mmHg 97%
04:00 +13°C° 0.2 mm 0 mps 598 mmHg 97%
05:00 +14°C° 0 mm 0 mps 599 mmHg 96%
06:00 +14°C° 0 mm 0 mps 599 mmHg 96%
07:00 +14°C° 0 mm 0 mps 600 mmHg 95%
08:00 +16°C° 0.2 mm 0 mps 601 mmHg 89%
09:00 +18°C° 0.2 mm 0 mps 601 mmHg 84%
10:00 +21°C° 0.2 mm 1 mps 602 mmHg 78%
11:00 +22°C° 1.2 mm 1 mps 601 mmHg 79%
12:00 +22°C° 1.2 mm 1 mps 601 mmHg 81%
13:00 +22°C° 1.2 mm 1 mps 600 mmHg 82%
14:00 +21°C° 1.6 mm 1 mps 599 mmHg 86%
15:00 +20°C° 1.6 mm 1 mps 599 mmHg 90%
16:00 +19°C° 1.6 mm 1 mps 598 mmHg 94%
17:00 +18°C° 1.2 mm 1 mps 598 mmHg 95%
18:00 +18°C° 1.2 mm 1 mps 598 mmHg 96%
19:00 +16°C° 1.2 mm 1 mps 598 mmHg 98%
20:00 +15°C° 0.8 mm 1 mps 598 mmHg 98%
21:00 +15°C° 0.8 mm 1 mps 599 mmHg 97%
22:00 +14°C° 0.8 mm 0 mps 599 mmHg 97%
23:00 +14°C° 0.5 mm 0 mps 599 mmHg 97%

Pasado mañana, 28 Octubre, Miércoles

Tiempo Temperatura Precipitaciones Viento Presión Humedad
00:00 +14°C° 0.5 mm 0 mps 599 mmHg 98%
01:00 +14°C° 0.5 mm 0 mps 598 mmHg 98%
02:00 +14°C° 0.5 mm 0 mps 598 mmHg 98%
03:00 +14°C° 0.5 mm 0 mps 598 mmHg 98%
04:00 +14°C° 0.5 mm 0 mps 598 mmHg 98%
05:00 +14°C° 0.9 mm 0 mps 598 mmHg 97%
06:00 +14°C° 0.9 mm 0 mps 599 mmHg 97%
07:00 +14°C° 0.9 mm 0 mps 599 mmHg 96%
08:00 +16°C° 0.3 mm 0 mps 600 mmHg 92%
09:00 +17°C° 0.3 mm 0 mps 601 mmHg 87%
10:00 +21°C° 0.3 mm 1 mps 602 mmHg 82%
11:00 +21°C° 1.3 mm 1 mps 601 mmHg 85%
12:00 +20°C° 1.3 mm 1 mps 600 mmHg 87%
13:00 +20°C° 1.3 mm 1 mps 599 mmHg 90%
14:00 +20°C° 1.1 mm 1 mps 599 mmHg 91%
15:00 +19°C° 1.1 mm 1 mps 598 mmHg 92%
16:00 +19°C° 1.1 mm 1 mps 598 mmHg 94%
17:00 +18°C° 0.5 mm 1 mps 598 mmHg 95%
18:00 +16°C° 0.5 mm 1 mps 598 mmHg 96%
19:00 +15°C° 0.5 mm 1 mps 598 mmHg 97%
20:00 +14°C° 0.1 mm 0 mps 598 mmHg 97%
21:00 +13°C° 0.1 mm 0 mps 598 mmHg 96%
22:00 +13°C° 0.1 mm 0 mps 599 mmHg 96%
23:00 +13°C° 0 mm 0 mps 598 mmHg 96%

29 Octubre, Jueves

Tiempo Temperatura Precipitaciones Viento Presión Humedad
00:00 +13°C° 0 mm 1 mps 598 mmHg 96%
01:00 +13°C° 0 mm 1 mps 598 mmHg 96%
02:00 +13°C° 0.1 mm 1 mps 598 mmHg 96%
03:00 +13°C° 0.1 mm 1 mps 598 mmHg 96%
04:00 +12°C° 0.1 mm 0 mps 598 mmHg 95%
05:00 +13°C° 0 mm 0 mps 598 mmHg 94%
06:00 +13°C° 0 mm 0 mps 599 mmHg 93%
07:00 +14°C° 0 mm 0 mps 600 mmHg 92%
08:00 +15°C° 0.5 mm 0 mps 601 mmHg 90%
09:00 +17°C° 0.5 mm 0 mps 601 mmHg 87%
10:00 +20°C° 0.5 mm 1 mps 602 mmHg 85%
11:00 +21°C° 1.4 mm 1 mps 602 mmHg 84%
12:00 +21°C° 1.4 mm 1 mps 601 mmHg 84%
13:00 +21°C° 1.4 mm 1 mps 600 mmHg 84%
14:00 +21°C° 1.1 mm 1 mps 600 mmHg 86%
15:00 +20°C° 1.1 mm 1 mps 599 mmHg 89%
16:00 +19°C° 1.1 mm 1 mps 598 mmHg 92%
17:00 +18°C° 0.9 mm 1 mps 598 mmHg 94%
18:00 +16°C° 0.9 mm 1 mps 599 mmHg 96%
19:00 +16°C° 0.9 mm 1 mps 599 mmHg 98%
20:00 +15°C° 1.3 mm 1 mps 599 mmHg 98%
21:00 +15°C° 1.3 mm 1 mps 600 mmHg 98%
22:00 +15°C° 1.3 mm 1 mps 600 mmHg 98%
23:00 +14°C° 1.1 mm 0 mps 600 mmHg 98%

30 Octubre, Viernes

Tiempo Temperatura Precipitaciones Viento Presión Humedad
00:00 +14°C° 1.1 mm 0 mps 599 mmHg 98%
01:00 +14°C° 1.1 mm 0 mps 599 mmHg 99%
02:00 +14°C° 0.6 mm 0 mps 599 mmHg 99%
03:00 +14°C° 0.6 mm 0 mps 599 mmHg 99%
04:00 +13°C° 0.6 mm 0 mps 599 mmHg 99%
05:00 +13°C° 1.9 mm 0 mps 599 mmHg 98%
06:00 +13°C° 1.9 mm 0 mps 599 mmHg 98%
07:00 +14°C° 1.9 mm 0 mps 600 mmHg 98%
08:00 +14°C° 2.5 mm 0 mps 600 mmHg 98%
09:00 +14°C° 2.5 mm 0 mps 601 mmHg 97%
10:00 +15°C° 2.5 mm 0 mps 601 mmHg 97%
11:00 +15°C° 1.2 mm 0 mps 601 mmHg 96%
12:00 +15°C° 1.2 mm 0 mps 600 mmHg 95%
13:00 +15°C° 1.2 mm 0 mps 600 mmHg 95%
14:00 +16°C° 0.3 mm 0 mps 600 mmHg 94%
15:00 +16°C° 0.3 mm 0 mps 599 mmHg 93%
16:00 +18°C° 0.3 mm 1 mps 599 mmHg 92%
17:00 +16°C° 0.2 mm 1 mps 599 mmHg 94%
18:00 +16°C° 0.2 mm 1 mps 599 mmHg 96%
19:00 +15°C° 0.2 mm 1 mps 599 mmHg 97%
20:00 +14°C° 0.3 mm 0 mps 600 mmHg 97%
21:00 +13°C° 0.3 mm 0 mps 600 mmHg 98%
22:00 +13°C° 0.3 mm 0 mps 600 mmHg 98%
23:00 +13°C° 2.5 mm 0 mps 600 mmHg 98%

31 Octubre, Sábado

Tiempo Temperatura Precipitaciones Viento Presión Humedad
00:00 +13°C° 2.5 mm 0 mps 600 mmHg 98%
01:00 +13°C° 2.5 mm 0 mps 600 mmHg 99%
Mostrar más

Necesitamos Su Consentimiento

Meteoprog y nuestros Proveedores de Servicios pueden almacenar y acceder a sus datos personales como cookies, identificadores de dispositivo u otras tecnologías similares de su dispositivo y procesar dichos datos para personalizar contenido y anuncios, además de ofrecer funciones de redes sociales y analizar el tráfico.

  • Almacenar y/o acceder a información en su dispositivo

    Se puede almacenar o acceder a cookies, identificadores de dispositivo u otra información de su dispositivo para los fines anteriormente indicados.

  • Anuncios y contenido personalizados, medición de anuncios y contenido, percepciones del público, y desarrollo de productos

    Los anuncios y el contenido pueden personalizarse en base a su perfil. Se pueden añadir más datos para personalizar mejor los anuncios y contenidos. Se puede medir el rendimiento de los anuncios y contenidos. Se puede obtener la percepción sobre el público que ha visto los anuncios y contenidos. Dichos datos pueden usarse para desarrollar o mejorar la experiencia del usuario, sistemas y software.

Al hacer clic en ‘Estoy De Acuerdo’ usted permitirá el uso de las cookies, identificadores de dispositivo, balizas web u otras tecnologías similares indicadas. Su configuración puede cambiarse desde el navegador de su dispositivo.

Para ciertos fines, los intereses legítimos pueden ser considerados por encima del consentimiento. Puede leer más sobre ello en nuestra Política de Privacidad y Cookies.